This is the latest recevied weather packets stored in our database for station/object KG4AGD. If no packets are shown the sender has not sent any weather packets the latest 10 day(s).
| Time | Temp. | Humidity | Pressure | Rain* | Wind** | Luminosity | Snow |
|---|---|---|---|---|---|---|---|
| 1777615731 | 15° C | 64% | 1014.9 hPa | 0 mm | - | - | - |
| 1777615429 | 15° C | 62% | 1014.9 hPa | 0 mm | - | - | - |
| 1777615126 | 15° C | 64% | 1014.5 hPa | 0 mm | - | - | - |
| 1777614824 | 15° C | 63% | 1014.9 hPa | 0 mm | - | - | - |
| 1777614522 | 15° C | 63% | 1014.9 hPa | 0 mm | - | - | - |
| 1777614220 | 15° C | 62% | 1014.5 hPa | 0 mm | - | - | - |
| 1777613918 | 15° C | 62% | 1014.5 hPa | 0 mm | - | - | - |
| 1777613616 | 15° C | 63% | 1014.5 hPa | 0 mm | - | - | - |
| 1777613313 | 15° C | 63% | 1014.5 hPa | 0 mm | - | - | - |
| 1777613011 | 15° C | 63% | 1014.2 hPa | 0 mm | - | - | - |
| 1777612709 | 15° C | 64% | 1014.2 hPa | 0 mm | - | - | - |
| 1777612407 | 15.56° C | 64% | 1014.2 hPa | 0 mm | - | - | - |
| 1777612105 | 15.56° C | 63% | 1014.2 hPa | 0 mm | - | - | - |
| 1777611802 | 15.56° C | 65% | 1014.2 hPa | 0 mm | - | - | - |
| 1777611500 | 15.56° C | 65% | 1014.2 hPa | 0 mm | - | - | - |
| 1777611198 | 15.56° C | 66% | 1014.2 hPa | 0 mm | - | - | - |
| 1777610895 | 15.56° C | 65% | 1014.2 hPa | 0 mm | - | - | - |
| 1777610593 | 15.56° C | 68% | 1014.2 hPa | 0 mm | - | - | - |
| 1777610291 | 15.56° C | 67% | 1014.2 hPa | 0 mm | - | - | - |
| 1777609989 | 15.56° C | 67% | 1014.2 hPa | 0 mm | - | - | - |
| 1777609686 | 16.11° C | 67% | 1013.8 hPa | 0 mm | - | - | - |
| 1777609384 | 16.11° C | 67% | 1013.8 hPa | 0 mm | - | - | - |
| 1777609082 | 16.11° C | 67% | 1013.8 hPa | 0 mm | - | - | - |
| 1777608780 | 16.11° C | 67% | 1013.5 hPa | 0 mm | - | - | - |
| 1777608478 | 16.11° C | 67% | 1013.8 hPa | 0 mm | - | - | - |
* Rain since midnight (hover to see other rain measurements)
** Current wind speed in m/s (hover to see current wind gust speed)